IB6929 OBBI-OMDB

Flight info

Callsign IB6929
Flight time 0h 50m
Altitude 25000
Route BHR N697 SODAK P559 VUTEB
Aircraft A359/H-SDE2E3GHIJ3J4J5LM1ORWXY/LB1D1

Departure

Time 2026-04-25 12:00
Airport Bahrain International Airport (OBBI)

Arrival

Time 2026-04-25 12:50
Airport Dubai International Airport (OMDB)
Time Latitude Longitude Altitude Speed Heading
2026-04-25 11:33 26.26951 50.62869 23 ft 0 kts 211°
2026-04-25 11:47 26.26952 50.62870 21 ft 2 kts 212°
2026-04-25 11:48 26.26974 50.62886 22 ft 4 kts 215°
2026-04-25 11:48 26.26996 50.62903 24 ft 4 kts 209°
2026-04-25 11:48 26.27018 50.62911 24 ft 4 kts 154°
2026-04-25 11:48 26.27031 50.62894 23 ft 4 kts 122°
2026-04-25 11:49 26.27046 50.62869 25 ft 4 kts 122°
2026-04-25 11:49 26.27051 50.62860 25 ft 0 kts 122°
2026-04-25 11:53 26.27051 50.62861 21 ft 0 kts 119°
2026-04-25 11:54 26.27052 50.62869 21 ft 1 kts 88°
2026-04-25 11:54 26.27058 50.62875 21 ft 1 kts 48°
2026-04-25 11:54 26.27098 50.62977 24 ft 16 kts 109°
2026-04-25 11:55 26.27027 50.63111 23 ft 24 kts 122°
2026-04-25 11:55 26.26931 50.63273 23 ft 26 kts 123°
2026-04-25 11:55 26.26829 50.63448 22 ft 28 kts 123°
2026-04-25 11:55 26.26722 50.63633 22 ft 29 kts 123°
2026-04-25 11:56 26.26610 50.63827 22 ft 30 kts 122°
2026-04-25 11:56 26.26495 50.64027 23 ft 32 kts 123°
2026-04-25 11:56 26.26372 50.64245 24 ft 33 kts 122°
2026-04-25 11:56 26.26246 50.64471 19 ft 35 kts 122°
2026-04-25 11:57 26.26113 50.64696 21 ft 36 kts 123°
2026-04-25 11:57 26.26011 50.64867 23 ft 0 kts 123°
2026-04-25 11:58 26.26008 50.64888 24 ft 7 kts 92°
2026-04-25 11:58 26.26028 50.64940 24 ft 0 kts 55°
2026-04-25 11:58 26.26031 50.64943 24 ft 2 kts 52°
2026-04-25 11:58 26.26057 50.64971 25 ft 8 kts 39°
2026-04-25 11:59 26.26124 50.64992 25 ft 12 kts 344°
2026-04-25 11:59 26.26269 50.64777 25 ft 72 kts 303°
2026-04-25 11:59 26.26671 50.64081 24 ft 139 kts 303°
2026-04-25 12:00 26.28002 50.61835 1005 ft 178 kts 311°
2026-04-25 12:00 26.29028 50.61066 1590 ft 183 kts 339°
2026-04-25 12:00 26.31774 50.60309 2371 ft 222 kts 352°
2026-04-25 12:01 26.33385 50.60474 2830 ft 245 kts 17°
2026-04-25 12:01 26.34901 50.61460 3310 ft 265 kts 38°
2026-04-25 12:01 26.36248 50.62917 3992 ft 275 kts 47°
2026-04-25 12:01 26.37476 50.64586 4731 ft 282 kts 51°
2026-04-25 12:02 26.39882 50.68141 6288 ft 291 kts 51°
2026-04-25 12:02 26.41132 50.69935 7048 ft 295 kts 50°
2026-04-25 12:02 26.42431 50.71737 7804 ft 301 kts 49°
2026-04-25 12:03 26.43772 50.73552 8639 ft 306 kts 49°
2026-04-25 12:03 26.45146 50.75385 9463 ft 311 kts 48°
2026-04-25 12:03 26.46554 50.77250 10270 ft 318 kts 48°
2026-04-25 12:03 26.48023 50.79191 10687 ft 340 kts 48°
2026-04-25 12:04 26.49048 50.80544 10895 ft 354 kts 48°
2026-04-25 12:04 26.50698 50.82727 11212 ft 375 kts 48°
2026-04-25 12:04 26.52402 50.84992 11755 ft 386 kts 48°
2026-04-25 12:04 26.54143 50.87314 12428 ft 393 kts 48°
2026-04-25 12:05 26.55913 50.89675 13101 ft 399 kts 48°
2026-04-25 12:05 26.57890 50.91875 13779 ft 403 kts 39°
2026-04-25 12:05 26.60029 50.93920 14397 ft 407 kts 37°
2026-04-25 12:05 26.62245 50.95908 15064 ft 410 kts 35°
2026-04-25 12:06 26.64480 50.97845 15694 ft 413 kts 34°
2026-04-25 12:06 26.66772 50.99806 16328 ft 417 kts 34°
2026-04-25 12:06 26.69089 51.01787 16968 ft 421 kts 34°
2026-04-25 12:06 26.71379 51.03879 17584 ft 429 kts 40°
2026-04-25 12:07 26.73355 51.06404 18222 ft 437 kts 52°
2026-04-25 12:07 26.74789 51.09441 18788 ft 444 kts 69°
2026-04-25 12:07 26.75456 51.12819 19352 ft 448 kts 86°
2026-04-25 12:07 26.75236 51.16288 19957 ft 448 kts 104°
2026-04-25 12:08 26.74461 51.19658 20562 ft 448 kts 110°
2026-04-25 12:08 26.73459 51.22970 21194 ft 450 kts 113°
2026-04-25 12:08 26.72356 51.26247 21820 ft 452 kts 114°
2026-04-25 12:08 26.71219 51.29531 22409 ft 454 kts 114°
2026-04-25 12:09 26.70084 51.32839 23019 ft 458 kts 114°
2026-04-25 12:09 26.68962 51.36175 23626 ft 460 kts 114°
2026-04-25 12:09 26.67850 51.39547 24102 ft 464 kts 113°
2026-04-25 12:09 26.66755 51.42911 24564 ft 468 kts 113°
2026-04-25 12:10 26.65646 51.46352 24857 ft 471 kts 113°
2026-04-25 12:10 26.64532 51.49826 24911 ft 483 kts 113°
2026-04-25 12:10 26.63377 51.53420 24914 ft 499 kts 113°
2026-04-25 12:10 26.62192 51.57100 24901 ft 507 kts 113°
2026-04-25 12:11 26.60996 51.60823 24924 ft 507 kts 113°
2026-04-25 12:11 26.59805 51.64531 24924 ft 506 kts 113°
2026-04-25 12:11 26.58615 51.68233 24923 ft 506 kts 113°
2026-04-25 12:11 26.57428 51.71919 24924 ft 505 kts 113°
2026-04-25 12:12 26.56238 51.75617 24922 ft 505 kts 113°
2026-04-25 12:12 26.55047 51.79313 24922 ft 505 kts 113°
2026-04-25 12:12 26.53850 51.83009 24916 ft 506 kts 113°
2026-04-25 12:12 26.52667 51.86650 24920 ft 506 kts 113°
2026-04-25 12:13 26.51464 51.90343 24922 ft 506 kts 113°
2026-04-25 12:13 26.50248 51.94018 24907 ft 506 kts 114°
2026-04-25 12:13 26.49015 51.97704 24916 ft 507 kts 113°
2026-04-25 12:13 26.47781 52.01387 24918 ft 507 kts 113°
2026-04-25 12:14 26.46542 52.05081 24918 ft 507 kts 113°
2026-04-25 12:14 26.45300 52.08795 24919 ft 507 kts 113°
2026-04-25 12:14 26.44067 52.12485 24921 ft 507 kts 113°
2026-04-25 12:14 26.42837 52.16172 24918 ft 507 kts 113°
2026-04-25 12:15 26.41605 52.19867 24918 ft 507 kts 113°
2026-04-25 12:15 26.40385 52.23508 24918 ft 507 kts 113°
2026-04-25 12:15 26.39146 52.27203 24918 ft 507 kts 113°
2026-04-25 12:15 26.37910 52.30881 24913 ft 507 kts 114°
2026-04-25 12:16 26.36675 52.34557 24909 ft 507 kts 113°
2026-04-25 12:16 26.35436 52.38238 24911 ft 507 kts 113°
2026-04-25 12:16 26.34161 52.41908 24911 ft 506 kts 115°
2026-04-25 12:16 26.32799 52.45515 24911 ft 505 kts 116°
2026-04-25 12:17 26.31390 52.49105 24909 ft 505 kts 117°
2026-04-25 12:17 26.29967 52.52696 24909 ft 505 kts 117°
2026-04-25 12:17 26.28558 52.56271 24908 ft 505 kts 116°
2026-04-25 12:17 26.27158 52.59854 24908 ft 504 kts 116°
2026-04-25 12:18 26.25761 52.63453 24911 ft 504 kts 116°
2026-04-25 12:18 26.24378 52.67034 24909 ft 504 kts 116°
2026-04-25 12:18 26.22995 52.70635 24907 ft 505 kts 116°
2026-04-25 12:18 26.21620 52.74233 24909 ft 505 kts 116°
2026-04-25 12:19 26.19328 52.80231 24906 ft 505 kts 116°
2026-04-25 12:19 26.17504 52.84992 24906 ft 505 kts 116°
2026-04-25 12:19 26.16123 52.88593 24900 ft 505 kts 116°
2026-04-25 12:20 26.14741 52.92191 24900 ft 505 kts 116°
2026-04-25 12:20 26.13357 52.95791 24906 ft 505 kts 116°
2026-04-25 12:20 26.11971 52.99393 24895 ft 505 kts 116°
2026-04-25 12:20 26.10589 53.02980 24896 ft 505 kts 116°
2026-04-25 12:21 26.09212 53.06585 24894 ft 506 kts 115°
2026-04-25 12:21 26.07872 53.10201 24895 ft 506 kts 115°
2026-04-25 12:21 26.06549 53.13826 24895 ft 506 kts 115°
2026-04-25 12:21 26.05228 53.17459 24895 ft 506 kts 115°
2026-04-25 12:22 26.03908 53.21082 24894 ft 506 kts 115°
2026-04-25 12:22 26.02580 53.24708 24895 ft 506 kts 115°
2026-04-25 12:22 26.01249 53.28333 24892 ft 506 kts 115°
2026-04-25 12:22 25.99931 53.31907 24892 ft 506 kts 115°
2026-04-25 12:23 25.98595 53.35524 24892 ft 506 kts 115°
2026-04-25 12:23 25.97254 53.39147 24892 ft 506 kts 115°
2026-04-25 12:23 25.95914 53.42766 24892 ft 506 kts 115°
2026-04-25 12:23 25.94574 53.46382 24889 ft 506 kts 115°
2026-04-25 12:24 25.93233 53.49997 24892 ft 506 kts 115°
2026-04-25 12:24 25.91927 53.53619 24892 ft 506 kts 114°
2026-04-25 12:24 25.90662 53.57278 24889 ft 506 kts 113°
2026-04-25 12:24 25.89419 53.60938 24889 ft 506 kts 113°
2026-04-25 12:25 25.88181 53.64593 24889 ft 506 kts 113°
2026-04-25 12:25 25.86936 53.68254 24889 ft 506 kts 113°
2026-04-25 12:25 25.85685 53.71905 24889 ft 506 kts 114°
2026-04-25 12:25 25.84431 53.75558 24882 ft 506 kts 114°
2026-04-25 12:26 25.83166 53.79214 24884 ft 506 kts 114°
2026-04-25 12:26 25.81894 53.82871 24889 ft 507 kts 114°
2026-04-25 12:26 25.80623 53.86516 24886 ft 507 kts 114°
2026-04-25 12:26 25.79351 53.90162 24886 ft 507 kts 114°
2026-04-25 12:27 25.78075 53.93819 24885 ft 507 kts 114°
2026-04-25 12:27 25.76804 53.97463 24886 ft 507 kts 114°
2026-04-25 12:27 25.75545 54.01071 24844 ft 506 kts 114°
2026-04-25 12:27 25.74318 54.04720 24290 ft 504 kts 112°
2026-04-25 12:28 25.73183 54.08378 23732 ft 498 kts 111°
2026-04-25 12:28 25.72099 54.12008 23118 ft 492 kts 110°
2026-04-25 12:28 25.71035 54.15599 22471 ft 486 kts 110°
2026-04-25 12:28 25.69981 54.19127 21868 ft 478 kts 111°
2026-04-25 12:29 25.68930 54.22604 21209 ft 472 kts 111°
2026-04-25 12:29 25.67884 54.26028 20616 ft 466 kts 111°
2026-04-25 12:29 25.66845 54.29406 20026 ft 460 kts 111°
2026-04-25 12:29 25.65818 54.32727 19451 ft 453 kts 111°
2026-04-25 12:30 25.64803 54.36014 18873 ft 447 kts 111°
2026-04-25 12:30 25.63799 54.39254 18307 ft 441 kts 111°
2026-04-25 12:30 25.62805 54.42450 17658 ft 436 kts 111°
2026-04-25 12:30 25.61820 54.45611 16946 ft 432 kts 111°
2026-04-25 12:31 25.60845 54.48737 16246 ft 428 kts 111°
2026-04-25 12:31 25.59875 54.51850 15552 ft 424 kts 111°
2026-04-25 12:31 25.58919 54.54917 14882 ft 420 kts 111°
2026-04-25 12:31 25.58233 54.58008 14366 ft 415 kts 98°
2026-04-25 12:32 25.58227 54.61161 14100 ft 402 kts 86°
2026-04-25 12:32 25.58517 54.64156 13788 ft 379 kts 84°
2026-04-25 12:32 25.58847 54.66999 13542 ft 367 kts 83°
2026-04-25 12:32 25.59181 54.69752 13329 ft 354 kts 83°
2026-04-25 12:33 25.59509 54.72417 13129 ft 342 kts 83°
2026-04-25 12:33 25.59827 54.74972 12947 ft 330 kts 83°
2026-04-25 12:33 25.60137 54.77445 12769 ft 318 kts 83°
2026-04-25 12:33 25.60435 54.79827 12619 ft 307 kts 83°
2026-04-25 12:34 25.60724 54.82128 12422 ft 298 kts 83°
2026-04-25 12:34 25.61005 54.84392 12080 ft 295 kts 83°
2026-04-25 12:34 25.61027 54.86620 11597 ft 295 kts 102°
2026-04-25 12:34 25.60635 54.88106 11121 ft 301 kts 113°
2026-04-25 12:35 25.59511 54.90990 10390 ft 307 kts 115°
2026-04-25 12:35 25.58655 54.93121 9970 ft 307 kts 115°
2026-04-25 12:35 25.57796 54.95284 9548 ft 306 kts 115°
2026-04-25 12:35 25.56948 54.97434 9100 ft 304 kts 115°
2026-04-25 12:36 25.56109 54.99573 8690 ft 302 kts 115°
2026-04-25 12:36 25.55277 55.01699 8287 ft 300 kts 114°
2026-04-25 12:36 25.54397 55.03776 8037 ft 297 kts 119°
2026-04-25 12:36 25.53392 55.05771 7984 ft 297 kts 121°
2026-04-25 12:37 25.52360 55.07756 7980 ft 297 kts 121°
2026-04-25 12:37 25.51329 55.09738 7982 ft 297 kts 121°
2026-04-25 12:37 25.50298 55.11719 7983 ft 297 kts 121°
2026-04-25 12:37 25.49270 55.13696 7982 ft 297 kts 121°
2026-04-25 12:38 25.48242 55.15675 7986 ft 297 kts 121°
2026-04-25 12:38 25.47212 55.17656 7984 ft 297 kts 121°
2026-04-25 12:38 25.46165 55.19598 7979 ft 296 kts 126°
2026-04-25 12:38 25.44880 55.21364 7984 ft 294 kts 133°
2026-04-25 12:39 25.43507 55.23047 7986 ft 294 kts 134°
2026-04-25 12:39 25.42128 55.24724 7986 ft 294 kts 134°
2026-04-25 12:39 25.40757 55.26398 7984 ft 294 kts 134°
2026-04-25 12:39 25.39381 55.28082 7986 ft 294 kts 134°
2026-04-25 12:40 25.38038 55.29727 7988 ft 294 kts 133°
2026-04-25 12:40 25.36640 55.31442 7991 ft 294 kts 134°
2026-04-25 12:40 25.35353 55.33202 8013 ft 296 kts 125°
2026-04-25 12:40 25.34248 55.35124 8029 ft 296 kts 123°
2026-04-25 12:41 25.33177 55.37067 8017 ft 296 kts 123°
2026-04-25 12:41 25.32106 55.39010 8019 ft 296 kts 122°
2026-04-25 12:41 25.31028 55.40955 7989 ft 296 kts 123°
2026-04-25 12:41 25.29951 55.42895 7993 ft 296 kts 123°
2026-04-25 12:42 25.28871 55.44836 7932 ft 294 kts 123°
2026-04-25 12:42 25.28511 55.45484 7814 ft 293 kts 123°
2026-04-25 12:42 25.26738 55.48669 7058 ft 293 kts 122°
2026-04-25 12:42 25.25675 55.50591 6666 ft 292 kts 122°
2026-04-25 12:43 25.24614 55.52495 6242 ft 292 kts 122°
2026-04-25 12:43 25.23559 55.54391 5764 ft 294 kts 123°
2026-04-25 12:43 25.21423 55.58229 4927 ft 292 kts 122°
2026-04-25 12:44 25.20357 55.60112 4604 ft 285 kts 124°
2026-04-25 12:44 25.18981 55.61604 4310 ft 271 kts 151°
2026-04-25 12:44 25.15646 55.61847 3609 ft 235 kts 210°
2026-04-25 12:45 25.14448 55.60689 3003 ft 230 kts 241°
2026-04-25 12:45 25.13981 55.59028 2643 ft 223 kts 267°
2026-04-25 12:45 25.14520 55.55870 2190 ft 207 kts 300°
2026-04-25 12:46 25.15264 55.54531 2032 ft 203 kts 303°
2026-04-25 12:46 25.15991 55.53247 2014 ft 190 kts 303°
2026-04-25 12:46 25.16661 55.52033 2007 ft 182 kts 303°
2026-04-25 12:46 25.17335 55.50808 2000 ft 198 kts 302°
2026-04-25 12:47 25.18084 55.49444 1978 ft 214 kts 302°
2026-04-25 12:47 25.18819 55.48108 1770 ft 197 kts 303°
2026-04-25 12:47 25.19492 55.46890 1542 ft 175 kts 303°
2026-04-25 12:47 25.20094 55.45804 1326 ft 158 kts 303°
2026-04-25 12:48 25.20650 55.44800 1116 ft 148 kts 302°
2026-04-25 12:48 25.21166 55.43866 937 ft 137 kts 303°
2026-04-25 12:48 25.21646 55.43001 789 ft 130 kts 303°
2026-04-25 12:48 25.22113 55.42155 636 ft 129 kts 303°
2026-04-25 12:49 25.22582 55.41306 471 ft 130 kts 302°
2026-04-25 12:49 25.23054 55.40454 310 ft 131 kts 302°
2026-04-25 12:49 25.23531 55.39588 140 ft 131 kts 304°
2026-04-25 12:49 25.23998 55.38742 37 ft 124 kts 303°
2026-04-25 12:50 25.24370 55.38083 32 ft 66 kts 301°
2026-04-25 12:50 25.24476 55.37895 27 ft 14 kts 302°
2026-04-25 12:50 25.24534 55.37793 26 ft 18 kts 302°
2026-04-25 12:50 25.24596 55.37660 22 ft 21 kts 283°
2026-04-25 12:51 25.24610 55.37553 21 ft 22 kts 276°
2026-04-25 12:51 25.24614 55.37490 22 ft 0 kts 272°
2026-04-25 12:51 25.24614 55.37485 22 ft 4 kts 272°
2026-04-25 12:52 25.24616 55.37442 23 ft 12 kts 272°
2026-04-25 12:52 25.24621 55.37314 25 ft 18 kts 276°
2026-04-25 12:52 25.24641 55.37212 36 ft 13 kts 288°
2026-04-25 12:52 25.24696 55.37087 35 ft 23 kts 301°
2026-04-25 12:53 25.24794 55.36903 33 ft 32 kts 300°
2026-04-25 12:53 25.24870 55.36728 31 ft 22 kts 287°
2026-04-25 12:53 25.24922 55.36599 29 ft 13 kts 303°
2026-04-25 12:53 25.24966 55.36526 28 ft 12 kts 302°
2026-04-25 12:54 25.25015 55.36436 27 ft 15 kts 301°
2026-04-25 12:54 25.25074 55.36329 30 ft 16 kts 302°
2026-04-25 12:54 25.25138 55.36216 26 ft 19 kts 302°
2026-04-25 12:54 25.25211 55.36083 24 ft 21 kts 302°
2026-04-25 12:55 25.25269 55.35978 25 ft 8 kts 301°
2026-04-25 12:55 25.25286 55.35946 24 ft 6 kts 301°
2026-04-25 12:55 25.25289 55.35941 23 ft 0 kts 301°
2026-04-25 12:56 25.25312 55.35900 20 ft 12 kts 301°
2026-04-25 12:56 25.25365 55.35805 22 ft 16 kts 302°
2026-04-25 12:57 25.25431 55.35688 17 ft 19 kts 301°
2026-04-25 12:57 25.25505 55.35556 20 ft 20 kts 301°
2026-04-25 12:57 25.25573 55.35432 22 ft 15 kts 301°
2026-04-25 12:57 25.25619 55.35347 24 ft 13 kts 301°
2026-04-25 12:58 25.25670 55.35256 27 ft 14 kts 301°
2026-04-25 12:58 25.25705 55.35194 27 ft 10 kts 301°
2026-04-25 12:58 25.25743 55.35125 28 ft 11 kts 301°
2026-04-25 12:58 25.25784 55.35045 27 ft 13 kts 300°
2026-04-25 12:59 25.25829 55.34956 28 ft 14 kts 292°
2026-04-25 12:59 25.25843 55.34848 29 ft 15 kts 271°
2026-04-25 12:59 25.25855 55.34731 30 ft 16 kts 291°
2026-04-25 12:59 25.25913 55.34621 31 ft 17 kts 301°
2026-04-25 13:00 25.25979 55.34506 32 ft 16 kts 302°
2026-04-25 13:00 25.25978 55.34472 32 ft 6 kts 246°
2026-04-25 13:00 25.25929 55.34437 32 ft 7 kts 206°
2026-04-25 13:00 25.25913 55.34427 32 ft 0 kts 209°
2026-04-25 13:01 25.25903 55.34421 32 ft 1 kts 210°
2026-04-25 13:01 25.25901 55.34419 32 ft 0 kts 210°